FREGAT R/B, 40083

Orbit data source: Space-Track

FREGAT R/B, 40083 is space debris originally from a launch on Thu, 10 Jul 2014 UTC launched from the French Guiana (FRGUI). Debris objects in space refer to the collection of defunct objects orbiting the Earth. Examples of debris include non-operational satellites, rocket bodies, and fragments generated from explosions, collisions, or faulty payload assembly.

Loading next visibility...
Identifier
40083, 2014-038E
Orbit
Active
Country
Flag of CISCIS
Related business
Manufacturer
Lavochkin
Mission
Spacecraft
Bus & Motor
FREGAT, Unknown motor
Mass
1,050 kg wet, 1,050 kg dry
Launch date (UTC)
2014-07-10 (12 years ago)
Launch vehicle
Unknown
Launch site
French Guiana (FRGUI)
Object type
Payload
Rocket body
Debris
Shape & HBR
Irr, 1.6 m
Radar Cross Section
11.055 m², Large (>1 m²)

Expand to show TLE details & history
Last TLE update: 7 hours ago

TLE from 7 hours ago
0 FREGAT R/B
1 40083U 14038E   26034.42074347 -.00000022  00000-0  00000+0 0  9991
2 40083   0.1529   6.4524 0012012 275.1664  78.2392  5.21123291220250
Epoch: 2026-02-03T10:05Z
TLE epoch observation values (Epoch: 2026-02-03T10:05:52.235Z)
Latitude
-0.02188°
Longitude
74.93036°
Altitude
7,670.059 km
Speed
5.328 km/s
True Right ascension
23h 59m 59s
True Declination
0° 01' 19"
Sunlit
Object was in daylight at epoch
Visualization orbit readout
Latitude
Unknown
Longitude
Unknown
Altitude
Unknown
Speed
Unknown
Apparent Right ascension
Unknown
Apparent Declination
Unknown
Sunlit
N/A
Visualization observer readout
Local Sidereal Time
18:57:59
Azimuth
Unknown
Elevation
Unknown
Doppler factor
Unknown
Orbital elements
Apogee altitude
7,695.078 km
Perigee altitude
7,661.309 km
Semi-major axis
14,056.331 km
Eccentricity
0.0012
Inclination
0.1529°
RAAN
6.4524°
Arg. of periapsis
275.1664°
True anomaly
78.374°
Mean anomaly
78.2392°
Eccentric anomaly
78.3066°
Mean motion
1.30237 °/min
Orbital period
276.42 mins
BSTAR
0
Loading maneuver chart data...
Computing Atmospheric mass density...
Loading historical data...
Loading historical data...
Loading historical data...
Loading historical data...
Loading historical data...
Loading historical data...
Loading historical data...
Other satellites on launch #38 in the year 2014 (2014-07-10 UTC)

Documentation

Showing up to 5 results
|